Wind_Speed
30 20 22 21 30 47 62 62 52 97 96 85 81 77 59 63 51 79 88 78 74 71 66 64 62 63 67 65 61 58 58 59 54 49 48 46 43 43 40 38 39 40 38
19 14 17 26 11 21 48 47 44 77 101 88 82 84 85 73 62 54 81 80 77 74 66 66 65 67 67 66 66 63 61 61 57 52 49 50 47 47 46 45 46 48 48
20 10 18 22 16 22 30 37 43 38 78 97 88 79 77 61 54 54 53 51 76 76 73 69 69 71 69 68 69 64 62 62 61 58 55 55 53 51 51 50 52 50 50
36 10 3 15 18 17 26 33 41 37 68 92 86 77 70 70 57 57 53 65 49 83 75 79 75 73 72 69 69 70 68 65 64 60 60 57 55 56 54 53 53 53 52
25 33 9 17 9 18 22 25 26 23 41 70 79 67 81 55 42 53 55 58 53 80 78 68 72 73 73 70 70 71 74 72 69 64 61 58 57 57 52 50 54 54 54
20 25 25 13 2 18 15 30 32 23 37 77 73 74 69 50 46 46 35 45 59 67 64 75 77 77 74 74 72 70 71 70 66 64 61 61 57 54 50 51 54 56 54
18 15 21 19 9 4 5 10 18 19 24 62 66 54 53 49 54 46 37 42 51 40 52 64 65 69 78 72 72 69 73 69 68 63 61 59 54 52 49 54 55 55 53
15 14 5 12 12 7 4 4 0 19 30 43 38 47 46 53 48 50 46 48 33 47 48 51 58 60 74 74 73 69 71 68 67 62 55 56 55 54 54 55 53 55 57
17 15 13 6 6 9 10 7 2 16 27 29 35 33 41 46 54 45 41 48 38 42 43 43 47 49 68 72 80 76 71 72 68 67 65 61 59 57 56 58 56 58 56
22 21 19 14 9 2 9 9 10 8 23 28 32 37 25 31 44 43 43 40 32 35 44 38 42 47 57 68 66 79 79 76 70 69 69 66 62 59 57 59 55 59 59
24 22 23 20 15 7 2 2 2 2 22 38 39 34 37 38 32 34 33 39 42 35 37 38 38 42 45 50 61 69 79 70 74 75 70 69 66 62 61 61 55 54 59
25 24 22 21 16 12 15 12 7 9 8 13 19 27 38 42 35 38 33 35 36 36 34 37 40 41 45 45 44 61 74 82 78 74 71 72 68 64 64 65 64 59 59
25 24 24 23 20 15 16 20 21 18 13 13 12 12 19 29 32 29 34 36 41 43 42 42 43 41 42 37 39 48 61 55 59 70 70 68 69 67 66 65 69 62 64
23 24 24 22 21 20 17 17 21 25 26 22 20 18 17 17 24 35 40 37 39 42 44 42 44 44 42 41 41 46 47 62 52 63 65 68 72 69 66 64 67 64 63
25 25 24 23 22 20 18 17 19 23 28 30 31 28 26 23 23 28 35 38 34 36 45 48 46 44 45 48 44 43 44 49 51 54 50 60 61 67 70 67 68 63 62
26 26 26 25 24 23 23 23 18 20 23 28 34 36 36 35 32 30 30 32 35 39 39 45 48 46 45 50 50 48 45 48 49 52 51 56 55 55 62 74 67 56 56
27 28 27 25 24 23 24 24 25 24 22 23 26 34 39 42 43 41 37 34 35 38 38 38 41 42 47 49 51 55 50 51 51 51 46 50 54 55 56 60 62 61 66
27 27 26 24 23 22 23 24 25 27 28 28 27 28 33 39 44 46 46 45 43 40 40 41 41 42 44 48 52 55 51 49 54 54 56 52 51 49 48 58 61 59 64
27 26 25 24 24 23 25 27 29 31 31 32 32 32 33 35 37 42 50 51 53 51 48 45 44 44 44 45 49 53 53 51 50 56 56 57 58 58 57 51 59 64 63
28 27 26 26 25 26 28 29 31 32 32 32 32 34 36 37 39 40 41 46 52 55 57 57 55 52 49 47 47 51 53 52 51 52 54 57 58 60 62 60 60 57 66
28 27 27 27 27 28 29 31 32 31 32 34 35 37 38 39 41 42 43 43 44 48 53 59 63 63 60 57 54 53 54 55 54 55 55 56 58 60 61 65 67 67 68
28 27 26 27 27 28 29 31 32 34 34 31 31 33 36 40 42 43 43 44 46 44 45 49 57 62 67 68 67 65 63 62 60 59 59 58 58 59 61 64 69 69 71
28 27 26 26 27 28 29 31 33 32 28 23 19 17 16 17 20 28 34 38 39 42 41 43 47 48 51 58 66 72 74 73 71 69 68 65 65 64 64 65 67 70 71
28 26 25 25 27 28 28 29 32 28 23 20 18 17 15 12 12 14 16 19 22 25 27 30 35 36 36 38 45 53 61 68 73 77 78 77 75 73 71 71 73 75 74
27 27 25 24 25 27 28 28 30 25 20 19 17 16 15 13 11 12 13 14 15 17 18 19 23 26 27 28 31 34 39 43 48 54 64 73 80 83 82 82 82 81 80
28 27 26 24 23 25 27 27 27 25 18 16 16 14 14 13 12 11 12 14 15 15 15 16 18 21 22 22 24 28 31 34 37 39 43 48 54 60 69 75 80 85 85
Wind_Direction
319 304 272 259 258 242 230 233 237 225 227 224 220 217 209 217 234 217 221 221 221 218 216 220 223 227 225 225 224 226 229 231 228 226 228 233 242 246 248 247 252 258 260
295 251 282 221 238 257 239 245 241 234 228 224 225 227 232 231 241 223 207 226 224 222 218 219 222 225 227 225 227 226 229 230 229 231 231 236 240 242 245 247 250 256 261
9 253 234 263 245 250 240 245 244 255 236 223 225 225 229 238 243 226 226 216 217 221 220 219 223 226 224 226 227 227 228 230 233 234 232 236 241 238 243 247 251 254 258
358 4 181 245 236 211 230 244 250 258 234 222 221 229 232 233 246 235 241 236 221 217 222 221 225 223 224 224 225 231 232 232 236 235 235 239 242 243 241 244 248 254 255
350 355 10 251 194 221 227 232 235 219 227 228 221 222 226 229 237 236 242 243 223 222 216 213 224 224 226 222 223 227 232 233 235 235 237 240 240 243 243 247 248 252 255
334 348 358 10 194 225 149 156 155 201 223 221 226 224 227 227 236 219 244 224 230 215 227 219 217 222 224 225 227 228 232 234 234 235 234 234 238 240 243 250 251 250 253
324 327 355 3 14 255 207 157 156 151 203 221 215 226 229 233 235 236 237 235 219 234 223 222 222 220 219 226 228 229 228 232 234 236 236 236 237 240 244 247 251 250 251
315 317 296 350 7 21 351 336 95 189 199 211 223 233 240 238 226 229 246 258 246 242 240 222 230 233 219 226 229 226 232 233 235 236 239 240 241 242 244 248 249 248 248
330 325 319 280 353 1 46 55 19 211 216 218 218 238 231 241 244 239 256 251 241 241 248 240 246 245 224 233 231 231 229 232 234 237 238 239 241 241 245 250 249 250 250
340 337 328 313 281 3 23 48 56 269 247 248 250 244 231 234 233 242 247 238 233 235 232 235 225 238 234 226 235 238 237 235 233 233 237 239 240 240 245 247 249 250 251
332 334 333 328 317 288 244 90 109 286 252 247 254 249 235 234 233 254 258 256 247 245 233 236 239 228 225 235 235 232 231 227 234 236 238 241 239 240 242 246 249 250 253
326 327 326 324 312 253 219 225 244 237 228 250 255 253 241 245 247 256 254 252 249 239 243 247 241 248 238 236 236 234 232 238 234 236 240 240 239 239 242 245 248 249 253
319 320 321 319 316 304 254 228 221 218 222 224 231 243 249 245 244 247 247 243 242 241 247 246 246 243 238 244 238 232 232 234 233 234 235 236 236 237 239 245 250 240 252
318 313 310 310 308 305 293 266 239 228 224 224 226 228 236 245 253 255 247 247 243 239 244 243 244 240 243 239 240 231 227 231 234 233 235 241 244 240 243 248 246 252 253
319 320 309 300 299 300 297 291 279 252 238 230 228 227 228 236 238 247 250 251 254 246 242 241 239 239 238 244 247 244 243 236 236 238 242 240 238 241 242 254 245 245 248
315 314 312 307 291 288 291 290 282 276 263 246 238 232 227 227 230 237 243 249 253 256 246 244 239 240 238 238 243 246 246 242 242 240 245 238 243 243 244 245 243 243 243
317 316 314 309 300 289 282 283 288 286 277 269 256 241 237 232 227 228 232 237 245 250 252 251 248 246 240 239 239 242 243 242 245 239 239 243 241 244 243 242 245 243 248
321 319 316 313 310 302 292 285 282 282 283 282 275 263 249 240 235 232 229 229 231 237 244 247 246 245 246 241 242 241 241 242 240 241 239 242 242 246 250 249 239 244 244
322 320 317 315 312 308 303 299 294 289 285 282 279 273 266 256 249 240 237 234 231 230 233 236 238 241 243 244 246 243 244 240 237 238 238 241 242 245 246 247 241 242 239
323 322 320 318 315 310 307 304 301 296 290 284 280 276 271 263 259 254 248 242 239 237 234 231 232 234 237 242 246 247 246 246 243 241 240 238 239 239 241 242 242 240 243
322 321 322 321 319 317 315 314 312 306 299 290 280 274 270 265 261 256 256 254 250 244 243 241 238 234 233 234 238 242 244 244 243 245 245 242 241 239 243 239 238 239 238
322 321 322 322 323 325 325 323 321 323 318 309 299 285 270 260 257 256 256 256 256 257 257 253 244 242 240 237 235 235 236 238 240 241 242 240 240 241 243 242 242 242 241
324 321 322 325 327 331 332 332 333 329 324 323 323 319 309 292 273 261 258 259 260 260 260 263 261 257 250 247 246 243 239 238 237 238 239 239 239 240 241 242 243 245 245
324 322 322 325 327 332 335 336 338 331 326 327 328 329 325 309 286 270 261 256 256 258 260 262 265 265 264 263 261 256 252 250 248 247 242 241 241 240 240 240 241 242 243
325 323 321 323 325 330 334 338 342 334 324 324 327 332 330 322 308 284 268 261 259 261 262 261 262 262 262 262 262 262 263 262 260 258 257 255 252 248 245 243 245 245 245
325 322 319 319 320 324 331 337 341 342 322 318 319 322 323 318 313 301 284 277 271 272 265 263 267 268 268 266 266 266 263 261 260 260 260 259 259 258 257 255 253 252 253
Height
5528 5526 5522 5518 5519 5523 5530 5542 5548 5561 5569 5588 5604 5607 5618 5627 5635 5650 5661 5671 5680 5688 5699 5711 5718 5730 5737 5745 5752 5759 5766 5772 5781 5786 5791 5795 5797 5801 5804 5807 5809 5812 5813
5528 5522 5519 5513 5517 5519 5525 5534 5541 5549 5556 5571 5587 5595 5600 5617 5620 5624 5644 5657 5668 5676 5686 5697 5706 5715 5724 5732 5739 5745 5753 5761 5769 5778 5782 5784 5789 5792 5794 5796 5799 5801 5803
5527 5521 5517 5516 5515 5519 5522 5526 5533 5538 5543 5558 5572 5585 5594 5604 5606 5614 5634 5635 5646 5662 5671 5681 5690 5701 5708 5718 5727 5733 5739 5748 5755 5763 5771 5772 5776 5780 5783 5786 5789 5791 5793
5529 5520 5515 5511 5511 5513 5516 5521 5524 5527 5534 5548 5563 5581 5592 5600 5605 5613 5620 5624 5634 5638 5654 5663 5675 5682 5693 5703 5712 5720 5728 5732 5742 5749 5756 5762 5767 5770 5771 5774 5778 5782 5785
5529 5522 5513 5511 5509 5508 5508 5510 5513 5519 5530 5544 5560 5574 5585 5595 5597 5606 5609 5614 5622 5629 5642 5638 5658 5668 5680 5688 5696 5703 5711 5717 5725 5733 5741 5749 5753 5759 5762 5767 5766 5769 5771
5527 5522 5516 5509 5506 5507 5508 5506 5508 5518 5526 5540 5553 5565 5574 5581 5588 5592 5598 5602 5608 5612 5623 5628 5641 5652 5665 5675 5682 5690 5697 5705 5711 5717 5725 5732 5740 5748 5750 5753 5755 5756 5758
5524 5522 5519 5514 5507 5505 5506 5504 5504 5510 5521 5533 5548 5557 5564 5573 5579 5584 5590 5593 5595 5602 5612 5621 5630 5634 5649 5659 5669 5676 5683 5690 5696 5706 5713 5719 5729 5737 5740 5739 5741 5745 5749
5518 5518 5517 5516 5512 5505 5502 5500 5498 5505 5518 5532 5541 5549 5558 5564 5567 5574 5582 5586 5591 5594 5600 5607 5616 5620 5635 5644 5656 5663 5671 5679 5686 5692 5701 5710 5716 5724 5724 5726 5730 5732 5732
5514 5511 5510 5510 5510 5506 5500 5500 5499 5504 5514 5525 5534 5544 5546 5551 5560 5567 5574 5581 5583 5586 5591 5599 5606 5612 5622 5631 5639 5648 5656 5664 5673 5679 5686 5693 5699 5706 5712 5712 5716 5720 5722
5512 5507 5504 5501 5501 5499 5495 5496 5500 5505 5513 5518 5527 5534 5537 5546 5555 5560 5565 5570 5574 5578 5585 5590 5596 5602 5608 5615 5624 5633 5640 5649 5657 5663 5670 5677 5686 5693 5700 5701 5704 5707 5711
5510 5505 5501 5497 5493 5491 5493 5498 5503 5507 5510 5516 5521 5524 5532 5539 5543 5553 5557 5560 5564 5569 5575 5582 5588 5594 5598 5602 5607 5616 5624 5633 5640 5649 5660 5665 5670 5678 5685 5690 5692 5694 5697
5507 5502 5500 5496 5493 5492 5495 5498 5499 5502 5505 5508 5509 5514 5523 5528 5536 5540 5545 5550 5553 5559 5564 5570 5578 5584 5588 5593 5595 5602 5609 5618 5626 5635 5643 5649 5655 5663 5668 5673 5678 5679 5684
5505 5501 5496 5492 5490 5487 5487 5490 5495 5498 5501 5503 5506 5508 5510 5516 5521 5524 5533 5540 5545 5549 5553 5559 5565 5571 5576 5580 5585 5590 5597 5603 5611 5617 5625 5632 5638 5645 5653 5657 5660 5661 5667
5502 5499 5495 5491 5487 5485 5484 5484 5486 5489 5493 5495 5500 5502 5504 5505 5508 5516 5523 5528 5533 5536 5542 5548 5554 5558 5566 5571 5575 5579 5584 5590 5597 5603 5610 5616 5622 5629 5637 5642 5645 5649 5654
5497 5494 5491 5487 5484 5481 5479 5478 5477 5478 5481 5485 5489 5491 5494 5498 5500 5505 5510 5515 5519 5523 5529 5536 5543 5547 5551 5558 5564 5569 5572 5578 5582 5588 5596 5601 5607 5615 5619 5623 5627 5635 5639
5494 5490 5487 5484 5481 5479 5476 5475 5475 5475 5475 5477 5478 5479 5483 5488 5491 5495 5498 5501 5505 5509 5515 5522 5527 5533 5538 5545 5551 5557 5560 5566 5570 5574 5580 5586 5593 5597 5601 5608 5612 5616 5621
5487 5483 5480 5478 5475 5474 5472 5470 5467 5467 5468 5468 5468 5470 5471 5476 5479 5482 5485 5488 5491 5496 5500 5505 5510 5517 5523 5529 5536 5542 5547 5551 5557 5560 5564 5569 5575 5580 5585 5590 5595 5599 5603
5481 5477 5473 5470 5468 5466 5464 5463 5461 5459 5458 5457 5457 5458 5459 5462 5464 5467 5470 5473 5478 5483 5486 5491 5496 5501 5507 5513 5519 5524 5528 5533 5539 5544 5549 5554 5559 5565 5570 5572 5576 5581 5585
5476 5472 5468 5464 5461 5459 5457 5454 5452 5450 5448 5446 5444 5445 5447 5449 5451 5454 5458 5461 5465 5469 5473 5478 5482 5487 5492 5496 5501 5505 5511 5516 5521 5527 5531 5536 5542 5548 5554 5556 5560 5562 5567
5470 5466 5462 5459 5455 5451 5448 5446 5443 5440 5438 5435 5433 5432 5433 5436 5438 5442 5445 5447 5451 5454 5458 5461 5465 5469 5474 5477 5482 5488 5493 5498 5502 5508 5513 5516 5522 5528 5533 5537 5542 5545 5549
5464 5460 5456 5452 5448 5444 5440 5435 5431 5428 5424 5422 5422 5422 5422 5422 5424 5426 5429 5432 5435 5438 5442 5446 5449 5452 5454 5458 5463 5468 5474 5479 5483 5489 5494 5498 5502 5507 5512 5516 5520 5524 5529
5458 5454 5450 5446 5442 5437 5433 5427 5422 5417 5412 5409 5406 5404 5405 5407 5408 5410 5413 5416 5419 5422 5425 5429 5433 5436 5438 5441 5445 5449 5454 5457 5462 5467 5472 5476 5481 5486 5490 5494 5499 5502 5507
5453 5448 5444 5440 5436 5431 5426 5421 5416 5410 5406 5403 5400 5398 5396 5394 5394 5397 5400 5402 5405 5407 5409 5413 5417 5418 5420 5424 5428 5430 5434 5438 5442 5447 5451 5454 5460 5463 5468 5472 5477 5482 5486
5447 5443 5439 5435 5431 5427 5422 5417 5411 5406 5402 5399 5396 5394 5392 5391 5390 5390 5391 5393 5396 5398 5399 5401 5403 5403 5403 5405 5409 5412 5415 5417 5421 5425 5429 5433 5436 5440 5445 5450 5454 5458 5462
5442 5437 5434 5430 5427 5423 5418 5413 5408 5403 5399 5396 5394 5391 5389 5388 5387 5386 5387 5388 5389 5390 5391 5391 5393 5393 5392 5393 5395 5397 5399 5400 5403 5405 5407 5410 5413 5417 5422 5427 5432 5436 5440
5436 5432 5429 5425 5422 5418 5414 5409 5405 5400 5397 5394 5392 5390 5387 5385 5384 5383 5383 5383 5383 5383 5384 5384 5384 5384 5384 5384 5385 5386 5388 5389 5390 5389 5390 5391 5393 5396 5400 5403 5407 5412 5416